Terminal Aerodrome Forecast
Issued by NWS

Home | Current Version | Previous Version | Text Only | Print | Product List | Glossary On
Versions: 1 2 3 4 5 6 7 8 9 10 11 12 13 14 15
000
FTUS44 KSJT 301100
TAFSOA
TAF
KSOA 301136Z 3012/3112 15006KT P6SM SCT040
     FM301800 21008KT P6SM BKN040
     FM302100 24010KT P6SM BKN040
     FM310000 VRB06KT P6SM BKN040
     FM310600 36008KT P6SM OVC050=

USA.gov is the U.S. government's official web portal to all federal, state and local government web resources and services.